Location: De Har
(53.3413°N, 6.6858°E)
Time: 16:10:29
(UTC+00:00)

USA 234 - Pass Details

Date: 22 April 2026
Orbit: 1102 x 1106 km, 123.0° (Epoch: 4 January)

Event Time Altitude Azimuth Distance (km) Brightness Sun altitude
Rises 02:01:23 0° 122° (ESE) 3,913 6.2 -17.1°
Reaches altitude 10° 02:03:52 10° 124° (ESE) 2,957 5.6 -16.9°
Maximum altitude 02:10:25 75° 210° (SSW) 1,140 3.2 -16.3°
Drops below altitude 10° 02:16:59 10° 296° (WNW) 2,968 5.4 -15.6°
Sets 02:19:29 0° 298° (WNW) 3,928 6.0 -15.4°
